Le nostre stazioni meteo in Italia

Pubblicità
Il mio iltempo24.it
Lecce, Italia (16332): Temperatura & dewpoint: 15.04.2019 09:00:00 - 21.04.2019 09:00:00 (CEST)Lecce, Italia (16332): velocità del vento: 15.04.2019 09:00:00 - 21.04.2019 09:00:00 (CEST)Lecce, Italia (16332): direzione del vento: 15.04.2019 09:00:00 - 21.04.2019 09:00:00 (CEST)Lecce, Italia (16332): reduced air pressure: 15.04.2019 09:00:00 - 21.04.2019 09:00:00 (CEST)Lecce, Italia (16332): visibility: 15.04.2019 09:00:00 - 21.04.2019 09:00:00 (CEST)
Data & Tempo tt [°C] td [°C] ff [km/h] ff [kn] dd ppp [hPa] vv [km]
21.04.2019 09:00:00 - - - - - - -
21.04.2019 08:00:00 12,4 11,6 8 4 SSE 1023,4 8
21.04.2019 07:00:00 8,0 7,0 4 2 S - 8
21.04.2019 06:00:00 8,0 7,0 4 2 NE - 10
21.04.2019 05:00:00 8,0 7,3 4 2 NE 1022,8 10
21.04.2019 04:00:00 8,0 7,0 5 3 SE - 10
21.04.2019 03:00:00 8,0 7,0 2 1 N - 10
21.04.2019 02:00:00 8,4 7,8 2 1 E 1024,1 10
21.04.2019 01:00:00 8,0 8,0 5 3 SSO - 10
21.04.2019 00:00:00 9,0 8,0 2 1 NNE - 10
20.04.2019 23:00:00 10,0 9,4 2 1 N 1024,0 10
20.04.2019 22:00:00 13,0 12,0 2 1 N - 10
20.04.2019 21:00:00 14,0 11,0 2 1 N - 10
20.04.2019 20:00:00 17,0 10,4 5 3 N 1023,0 10
20.04.2019 19:00:00 18,0 8,0 11 6 N - 10
20.04.2019 18:00:00 18,0 8,0 16 9 N - 10
20.04.2019 17:00:00 19,0 6,8 18 10 NNE 1023,1 10
20.04.2019 16:00:00 19,0 7,0 18 10 NNE - 10
20.04.2019 15:00:00 20,0 7,0 18 10 N - 10
20.04.2019 14:00:00 19,2 7,9 16 9 NNE 1023,8 10
20.04.2019 13:00:00 19,0 8,0 13 7 NNE - 10
20.04.2019 12:00:00 18,0 10,0 15 8 NNE - 10
20.04.2019 11:00:00 16,8 11,1 11 6 N 1024,4 10
20.04.2019 10:00:00 15,0 11,0 13 7 NNO - 10
20.04.2019 09:00:00 10,0 8,0 13 7 NO - 10
20.04.2019 08:00:00 5,8 4,9 4 2 N 1024,6 10
20.04.2019 07:00:00 6,0 5,0 4 2 - - 10
20.04.2019 06:00:00 6,0 6,0 4 2 - - 10
20.04.2019 05:00:00 7,0 6,3 4 2 N 1024,7 10
20.04.2019 04:00:00 7,0 6,0 4 2 - - 10
20.04.2019 03:00:00 7,0 7,0 4 2 - - 10
20.04.2019 02:00:00 7,8 7,1 4 2 N 1025,5 10
20.04.2019 01:00:00 8,0 7,0 2 1 - - 10
20.04.2019 00:00:00 9,0 8,0 2 1 - - 10
19.04.2019 23:00:00 10,8 10,2 5 3 NO 1025,8 10
19.04.2019 22:00:00 11,0 10,0 9 5 NNO - 10
19.04.2019 21:00:00 12,0 9,0 5 3 NO - 10
19.04.2019 20:00:00 13,0 7,5 8 4 NNO 1025,4 10
19.04.2019 19:00:00 17,0 7,0 16 9 N - 10
19.04.2019 18:00:00 18,0 9,0 15 8 N - 10
19.04.2019 17:00:00 18,0 7,4 16 9 N 1025,3 10
19.04.2019 16:00:00 18,0 6,0 18 10 N - 10
19.04.2019 15:00:00 19,0 7,0 16 9 N - 10
19.04.2019 14:00:00 18,8 8,5 18 10 NNE 1025,8 10
19.04.2019 13:00:00 19,0 10,0 15 8 N - 10
19.04.2019 12:00:00 18,0 12,0 13 7 N - 10
19.04.2019 11:00:00 18,2 12,7 13 7 N 1025,7 10
19.04.2019 10:00:00 17,0 13,0 13 7 NNE - 10
19.04.2019 09:00:00 16,0 13,0 13 7 NNE - 10
19.04.2019 08:00:00 11,4 10,5 8 4 N 1024,8 6
19.04.2019 07:00:00 10,0 9,0 8 4 N - 5
19.04.2019 06:00:00 8,0 7,0 4 2 - - 3,0
19.04.2019 05:00:00 9,8 9,1 5 3 N 1024,4 5
19.04.2019 04:00:00 10,0 9,0 9 5 NNO - 10
19.04.2019 03:00:00 10,0 9,0 8 4 NO - 10
19.04.2019 02:00:00 11,2 10,4 13 7 NNO 1024,3 10
19.04.2019 01:00:00 11,0 11,0 8 4 N - 10
19.04.2019 00:00:00 11,0 11,0 9 5 NNO - 10
18.04.2019 23:00:00 12,0 11,1 9 5 N 1024,0 10
18.04.2019 22:00:00 12,0 11,0 9 5 NNO - 10
18.04.2019 21:00:00 13,0 12,0 8 4 N - 10
18.04.2019 20:00:00 13,8 11,9 13 7 NNO 1022,1 10
18.04.2019 19:00:00 15,0 10,0 16 9 N - 10
18.04.2019 18:00:00 17,0 9,0 15 8 NNE - 10
18.04.2019 17:00:00 18,0 9,6 16 9 NNE 1021,2 10
18.04.2019 16:00:00 18,0 12,0 18 10 N - 10
18.04.2019 15:00:00 18,0 13,0 18 10 N - 10
18.04.2019 14:00:00 18,0 12,2 18 10 NNE 1021,0 10
18.04.2019 13:00:00 17,0 12,0 24 13 N - 10
18.04.2019 12:00:00 18,0 12,0 15 8 N - 10
18.04.2019 11:00:00 16,2 9,6 16 9 NNE 1021,1 10
18.04.2019 10:00:00 16,0 12,0 16 9 N - 10
18.04.2019 09:00:00 14,0 11,0 13 7 NNO - 10
18.04.2019 08:00:00 10,2 9,4 4 2 N 1020,8 10
18.04.2019 07:00:00 7,0 6,0 2 1 - - 10
18.04.2019 06:00:00 7,0 6,0 5 3 - - 10
18.04.2019 05:00:00 7,0 6,2 4 2 N 1020,5 10
18.04.2019 04:00:00 8,0 7,0 4 2 - - 10
18.04.2019 03:00:00 8,0 7,0 2 1 - - 10
18.04.2019 02:00:00 8,0 7,3 4 2 N 1020,6 10
18.04.2019 01:00:00 8,0 7,0 4 2 - - 10
18.04.2019 00:00:00 8,0 7,0 0 0 N - 10
17.04.2019 23:00:00 9,0 7,9 4 2 N 1020,5 10
17.04.2019 22:00:00 11,0 9,0 4 2 NNO - 10
17.04.2019 21:00:00 11,0 8,0 8 4 NO - 10
17.04.2019 20:00:00 13,4 8,5 8 4 N 1018,2 10
17.04.2019 19:00:00 16,0 8,0 21 11 NNO - 10
17.04.2019 18:00:00 17,0 9,0 13 7 N - 10
17.04.2019 17:00:00 17,4 9,6 15 8 N 1017,9 10
17.04.2019 16:00:00 17,0 10,0 16 9 NNE - 10
17.04.2019 15:00:00 18,0 9,0 18 10 NNE - 10
17.04.2019 14:00:00 18,4 9,2 13 7 N 1018,7 10
17.04.2019 13:00:00 18,0 10,0 13 7 N - 10
17.04.2019 12:00:00 18,0 10,0 11 6 NNE - 10
17.04.2019 11:00:00 17,0 8,2 9 5 NNE 1019,2 10
17.04.2019 10:00:00 16,0 14,0 8 4 N - 10
17.04.2019 09:00:00 12,0 12,0 4 2 NO - 5
17.04.2019 08:00:00 10,8 10,0 5 3 NNO 1018,8 0,5
17.04.2019 07:00:00 10,0 9,0 0 0 N - 0,1
17.04.2019 06:00:00 9,0 8,0 4 2 OSO - 0,1
17.04.2019 05:00:00 8,8 8,1 0 0 N 1018,7 0,1
17.04.2019 04:00:00 8,0 8,0 0 0 N - 1,5
17.04.2019 03:00:00 9,0 8,0 0 0 N - 3,0
17.04.2019 02:00:00 8,8 8,1 0 0 N 1019,1 10
17.04.2019 01:00:00 9,0 8,0 4 2 - - 10
17.04.2019 00:00:00 9,0 9,0 4 2 - - 10
16.04.2019 23:00:00 11,4 10,6 5 3 NNO 1019,3 10
16.04.2019 22:00:00 12,0 11,0 9 5 NO - 10
16.04.2019 21:00:00 12,0 12,0 5 3 NO - 10
16.04.2019 20:00:00 14,8 13,5 4 2 N 1018,4 10
16.04.2019 19:00:00 17,0 13,0 11 6 NE - 10
16.04.2019 18:00:00 18,0 12,0 11 6 NNO - 10
16.04.2019 17:00:00 18,0 13,9 13 7 N 1017,9 10
16.04.2019 16:00:00 18,0 14,0 16 9 NNO - 10
16.04.2019 15:00:00 18,0 14,0 15 8 NNE - 10
16.04.2019 14:00:00 18,6 13,7 13 7 N 1018,8 10
16.04.2019 13:00:00 18,0 14,0 15 8 N - 10
16.04.2019 12:00:00 17,0 14,0 15 8 N - 10
16.04.2019 11:00:00 17,0 13,1 13 7 N 1018,5 10
16.04.2019 10:00:00 15,0 12,0 15 8 N - 10
16.04.2019 09:00:00 14,0 11,0 13 7 NNO - 10
16.04.2019 08:00:00 10,4 9,5 9 5 NO 1018,3 10
16.04.2019 07:00:00 8,0 8,0 5 3 O - 10
16.04.2019 06:00:00 8,0 8,0 8 4 NO - 10
16.04.2019 05:00:00 8,8 8,2 5 3 O 1017,4 10
16.04.2019 04:00:00 9,0 8,0 5 3 NNO - 10
16.04.2019 03:00:00 9,0 8,0 4 2 NNO - 10
16.04.2019 02:00:00 9,0 8,4 4 2 NO 1017,4 10
16.04.2019 01:00:00 10,0 9,0 5 3 NO - 10
16.04.2019 00:00:00 11,0 10,0 9 5 N - 10
15.04.2019 23:00:00 11,0 10,2 9 5 NNE 1016,6 10
15.04.2019 22:00:00 14,0 11,0 16 9 N - 10
15.04.2019 21:00:00 13,0 12,0 15 8 N - 10
15.04.2019 20:00:00 13,2 12,4 11 6 N 1013,9 10
15.04.2019 19:00:00 14,0 12,0 9 5 N - 10
15.04.2019 18:00:00 14,0 12,0 15 8 N - 10
15.04.2019 17:00:00 14,4 11,0 13 7 NNE 1012,5 10
15.04.2019 16:00:00 15,0 11,0 13 7 ENE - 10
15.04.2019 15:00:00 15,0 10,0 11 6 NE - 10
15.04.2019 14:00:00 15,2 10,8 11 6 E 1011,6 10
15.04.2019 13:00:00 15,0 10,0 9 5 ESE - 10
15.04.2019 12:00:00 14,0 11,0 11 6 ENE - 10
15.04.2019 11:00:00 14,6 10,8 11 6 E 1011,4 10
15.04.2019 10:00:00 13,0 11,0 9 5 E - 10
15.04.2019 09:00:00 12,0 10,0 5 3 NE - 10

tt = Temperatura
td = dewpoint
ff = velocità del vento
dd = direzione del vento
ppp = reduced air pressure
vv = visibility

Stazioni seguenti

WeatherPro
AMSI
MeteoEarth